Powrót do katalogu

DELTA 1 DEB

AktywnySSO
NORAD 7173·DEBRIS·🇺🇸 United States

Wystrzelony Nov 6, 1973 z Vandenberg Space Force Base

Loading…

Następne Przeloty (najbliższe 24 godziny)

TLE

ŚwieżeSource: Space-Track

Epoka: Sep 14, 2026, 08:00 UTC

1 07173U 73086EK  26257.33355120  .00000072  00000-0  95378-3 0  9990
2 07173 102.5604  45.9852 0223977 318.2820  68.9915 12.28306998188851

Śledź DELTA 1 DEB w czasie rzeczywistym z AllMySat

Download on the App Store